This is the latest recevied weather packets stored in our database for station/object K1RTA-1. If no packets are shown the sender has not sent any weather packets the latest 10 day(s).
| Time | Temp. | Humidity | Pressure | Rain* | Wind** | Luminosity | Snow |
|---|---|---|---|---|---|---|---|
| 1777671391 | 14.44° C | 55% | 1010.5 hPa | 0 mm | - | - | - |
| 1777670490 | 15° C | 53% | 1010.5 hPa | 0 mm | - | - | - |
| 1777669591 | 16.11° C | 53% | 1010.4 hPa | 0 mm | - | - | - |
| 1777668690 | 16.67° C | 50% | 1010.3 hPa | 0 mm | - | - | - |
| 1777667791 | 17.78° C | 46% | 1010.2 hPa | 0 mm | - | - | - |
| 1777666891 | 17.78° C | 51% | 1010.3 hPa | 0 mm | - | - | - |
| 1777665992 | 17.78° C | 48% | 1010.3 hPa | 0 mm | - | - | - |
| 1777665091 | 17.78° C | 51% | 1010.2 hPa | 0 mm | - | - | - |
| 1777664190 | 17.78° C | 50% | 1010.2 hPa | 0 mm | - | - | - |
| 1777663291 | 17.78° C | 51% | 1010.2 hPa | 0 mm | - | - | - |
| 1777662391 | 17.78° C | 48% | 1010.2 hPa | 0 mm | - | - | - |
| 1777661492 | 17.78° C | 50% | 1010.2 hPa | 0 mm | - | - | - |
| 1777660591 | 17.78° C | 49% | 1010.3 hPa | 0 mm | - | - | - |
| 1777659690 | 17.78° C | 49% | 1010.4 hPa | 0 mm | - | - | - |
| 1777658791 | 17.78° C | 48% | 1010.5 hPa | 0 mm | - | - | - |
| 1777657892 | 17.78° C | 47% | 1010.6 hPa | 0 mm | - | - | - |
| 1777656991 | 17.78° C | 50% | 1010.7 hPa | 0 mm | - | - | - |
| 1777656090 | 17.22° C | 50% | 1010.7 hPa | 0 mm | - | - | - |
| 1777655190 | 16.67° C | 52% | 1010.6 hPa | 0 mm | - | - | - |
| 1777654292 | 16.11° C | 51% | 1010.7 hPa | 0 mm | - | - | - |
| 1777653392 | 16.11° C | 51% | 1010.8 hPa | 0 mm | - | - | - |
| 1777652491 | 15.56° C | 55% | 1010.7 hPa | 0 mm | - | - | - |
| 1777651590 | 15.56° C | 58% | 1010.8 hPa | 0 mm | - | - | - |
| 1777650692 | 15° C | 57% | 1010.8 hPa | 0 mm | - | - | - |
| 1777649791 | 15° C | 58% | 1011 hPa | 0 mm | - | - | - |
* Rain latest hour (hover to see other rain measurements)
** Current wind speed in m/s (hover to see current wind gust speed)